Change the Weather History Date:

Thursday, December 5, 2013

  Actual Average (KLJF) Record (KLJF)
Temperature  
Mean Temperature 3 °F -  
Max Temperature 8 °F 30 °F 50 °F (1960)
Min Temperature -4 °F 13 °F -12 °F (1984)
Degree Days  
Heating Degree Days 62    
Moisture  
Dew Point -3 °F    
Average Humidity 74    
Maximum Humidity 79    
Minimum Humidity 66    
Precipitation  
Precipitation 0.00 in - - ()
Sea Level Pressure  
Sea Level Pressure 30.08 in    
Wind  
Wind Speed 21 mph (WNW)    
Max Wind Speed 29 mph    
Max Gust Speed 39 mph    
Visibility 6 miles    
Events      
Averages and records for this station are not official NWS values.
T = Trace of Precipitation, MM = Missing Value Source: NWS Daily Summary

Daily Weather History Graph

Daily Weather History Graph

Search for Another Location

Airport or City:

Trip Planner

Search our weather history database for the weather conditions in past years. The results will help you decide how hot, cold, wet, or windy it might be!

Date:

Astronomy

Dec. 05, 2013 Rise Set
Actual Time 7:43 AM CST 4:38 PM CST
Civil Twilight 7:10 AM CST 5:12 PM CST
Nautical Twilight 6:33 AM CST 5:49 PM CST
Astronomical Twilight 5:57 AM CST 6:24 PM CST
Moon 10:00 AM CST (12/5) 8:05 PM CST (12/5)
Length of Visible Light 10h 02m
Length of Day
8h 55m
Waxing Crescent, 11% of the Moon is Illuminated
Dec 5
Waxing Crescent
Dec 9
First Quarter
Dec 17
Full
Dec 25
Last Quarter
Jan 1
New

Hourly Weather History & Observations

Time (CST) Temp. Windchill Dew Point Humidity Pressure Visibility Wind Dir Wind Speed Gust Speed Precip Events Conditions
12:15 AM 8.6 °F -12.3 °F 3.2 °F 79% 29.78 in 2.0 mi WNW 24.2 mph 32.2 mph N/A   Haze
12:35 AM 8.6 °F -11.0 °F 3.2 °F 79% 29.79 in 2.5 mi WNW 20.7 mph 29.9 mph N/A   Haze
12:56 AM 8.6 °F -10.5 °F 3.2 °F 79% 29.80 in 3.0 mi WNW 19.6 mph 27.6 mph N/A   Haze
1:15 AM 6.8 °F -14.7 °F 1.4 °F 79% 29.80 in 3.0 mi WNW 24.2 mph 32.2 mph N/A   Haze
1:35 AM 6.8 °F -16.2 °F 1.4 °F 79% 29.80 in 2.0 mi WNW 28.8 mph 35.7 mph N/A   Haze
1:55 AM 6.8 °F -15.5 °F 1.4 °F 79% 29.81 in 2.5 mi WNW 26.5 mph 35.7 mph N/A   Haze
2:15 AM 6.8 °F -14.3 °F 1.4 °F 79% 29.83 in 3.0 mi WNW 23.0 mph 32.2 mph N/A   Haze
2:35 AM 6.8 °F -15.1 °F 1.4 °F 79% 29.83 in 3.0 mi WNW 25.3 mph 31.1 mph N/A   Haze
2:55 AM 6.8 °F -14.3 °F 1.4 °F 79% 29.85 in 3.0 mi WNW 23.0 mph 32.2 mph N/A   Haze
3:15 AM 6.8 °F -15.9 °F 1.4 °F 79% 29.86 in 2.5 mi WNW 27.6 mph 34.5 mph N/A   Haze
3:35 AM 6.8 °F -15.5 °F 1.4 °F 79% 29.87 in 3.0 mi WNW 26.5 mph 32.2 mph N/A   Haze
3:55 AM 6.8 °F -14.7 °F 1.4 °F 79% 29.88 in 4.0 mi WNW 24.2 mph 32.2 mph N/A   Haze
4:15 AM 6.8 °F -15.5 °F 1.4 °F 79% 29.90 in 3.0 mi WNW 26.5 mph 34.5 mph N/A   Haze
4:35 AM 6.8 °F -14.7 °F -0.4 °F 72% 29.91 in 3.0 mi West 24.2 mph 32.2 mph N/A   Haze
4:55 AM 5.0 °F -17.5 °F -0.4 °F 78% 29.92 in 5.0 mi West 25.3 mph 29.9 mph N/A   Haze
5:15 AM 3.2 °F -18.6 °F -2.2 °F 78% 29.93 in 2.5 mi WNW 21.9 mph 39.1 mph N/A   Haze
5:35 AM 3.2 °F -19.0 °F -2.2 °F 78% 29.94 in 4.0 mi WNW 23.0 mph 35.7 mph N/A   Haze
5:55 AM 3.2 °F -18.1 °F -2.2 °F 78% 29.95 in 7.0 mi WNW 20.7 mph 29.9 mph N/A   Overcast
6:15 AM 3.2 °F -18.6 °F -2.2 °F 78% 29.95 in 5.0 mi WNW 21.9 mph 29.9 mph N/A   Haze
6:35 AM 3.2 °F -19.0 °F -4.0 °F 72% 29.97 in 5.0 mi WNW 23.0 mph 29.9 mph N/A   Haze
6:56 AM 3.2 °F -18.6 °F -4.0 °F 72% 29.97 in 5.0 mi WNW 21.9 mph 33.4 mph N/A   Haze
7:15 AM 3.2 °F -19.0 °F -4.0 °F 72% 29.98 in 7.0 mi WNW 23.0 mph 32.2 mph N/A   Overcast
7:35 AM 1.4 °F -22.7 °F -4.0 °F 78% 29.98 in 7.0 mi WNW 26.5 mph 29.9 mph N/A   Overcast
7:56 AM 1.4 °F -21.4 °F -5.8 °F 72% 29.99 in 7.0 mi WNW 23.0 mph 29.9 mph N/A   Overcast
8:15 AM 1.4 °F -21.9 °F -5.8 °F 72% 30.01 in 5.0 mi WNW 24.2 mph 28.8 mph N/A   Haze
8:35 AM 1.4 °F -21.0 °F -5.8 °F 72% 30.02 in 10.0 mi West 21.9 mph 28.8 mph N/A   Overcast
8:55 AM 1.4 °F -21.4 °F -5.8 °F 72% 30.02 in 7.0 mi WNW 23.0 mph 31.1 mph N/A   Overcast
9:15 AM 3.2 °F -17.6 °F -5.8 °F 66% 30.04 in 7.0 mi WNW 19.6 mph 31.1 mph N/A   Overcast
9:35 AM 3.2 °F -19.9 °F -5.8 °F 66% 30.06 in 7.0 mi WNW 25.3 mph - N/A   Overcast
9:55 AM 3.2 °F -19.5 °F -4.0 °F 72% 30.07 in 4.0 mi West 24.2 mph 32.2 mph N/A   Haze
10:15 AM 3.2 °F -18.6 °F -4.0 °F 72% 30.08 in 5.0 mi West 21.9 mph 28.8 mph N/A   Haze
10:35 AM 3.2 °F -19.9 °F -4.0 °F 72% 30.10 in 7.0 mi West 25.3 mph 29.9 mph N/A   Overcast
10:55 AM 5.0 °F -16.2 °F -4.0 °F 66% 30.10 in 5.0 mi West 21.9 mph 29.9 mph N/A   Haze
11:15 AM 5.0 °F -14.7 °F -4.0 °F 66% 30.11 in 7.0 mi WNW 18.4 mph 31.1 mph N/A   Overcast
11:35 AM 5.0 °F -15.7 °F -2.2 °F 72% 30.11 in 7.0 mi WNW 20.7 mph 28.8 mph N/A   Overcast
11:55 AM 5.0 °F -16.2 °F -2.2 °F 72% 30.11 in 5.0 mi WNW 21.9 mph 32.2 mph N/A   Haze
12:15 PM 5.0 °F -17.9 °F -2.2 °F 72% 30.11 in 5.0 mi WNW 26.5 mph 32.2 mph N/A   Haze
12:36 PM 6.8 °F -13.8 °F -2.2 °F 67% 30.12 in 7.0 mi WNW 21.9 mph 26.5 mph N/A   Mostly Cloudy
12:55 PM 6.8 °F -14.7 °F -2.2 °F 67% 30.12 in 5.0 mi WNW 24.2 mph 32.2 mph N/A   Haze
1:15 PM 6.8 °F -14.3 °F -2.2 °F 67% 30.13 in 7.0 mi WNW 23.0 mph 26.5 mph N/A   Overcast
1:36 PM 6.8 °F -10.0 °F -2.2 °F 67% 30.13 in 5.0 mi WNW 13.8 mph 26.5 mph N/A   Haze
1:55 PM 6.8 °F -13.8 °F -2.2 °F 67% 30.12 in 5.0 mi WNW 21.9 mph 26.5 mph N/A   Haze
2:15 PM 6.8 °F -12.4 °F -0.4 °F 72% 30.12 in 4.0 mi WNW 18.4 mph - N/A   Haze
2:36 PM 6.8 °F -11.8 °F -2.2 °F 67% 30.13 in 4.0 mi WNW 17.3 mph 25.3 mph N/A   Haze
2:55 PM 6.8 °F -12.4 °F -0.4 °F 72% 30.13 in 1.0 mi WNW 18.4 mph - N/A   Haze
3:15 PM 6.8 °F -11.3 °F -0.4 °F 72% 30.14 in 3.0 mi West 16.1 mph 25.3 mph N/A   Haze
3:35 PM 5.0 °F -13.6 °F -0.4 °F 78% 30.14 in 2.5 mi WNW 16.1 mph - N/A   Haze
3:55 PM 5.0 °F -12.3 °F -0.4 °F 78% 30.15 in 7.0 mi WNW 13.8 mph - N/A   Mostly Cloudy
4:15 PM 5.0 °F -13.0 °F -2.2 °F 72% 30.16 in 10.0 mi WNW 15.0 mph - N/A   Scattered Clouds
4:35 PM 3.2 °F -15.3 °F -2.2 °F 78% 30.17 in 5.0 mi WNW 15.0 mph - N/A   Haze
4:55 PM 3.2 °F -15.3 °F -2.2 °F 78% 30.18 in 10.0 mi WNW 15.0 mph 19.6 mph N/A   Mostly Cloudy
5:15 PM 3.2 °F -13.9 °F -2.2 °F 78% 30.18 in 10.0 mi WNW 12.7 mph - N/A   Overcast
5:35 PM 3.2 °F -13.9 °F -4.0 °F 72% 30.19 in 10.0 mi WNW 12.7 mph 19.6 mph N/A   Scattered Clouds
5:55 PM 3.2 °F -14.6 °F -4.0 °F 72% 30.19 in 10.0 mi WNW 13.8 mph - N/A   Clear
6:15 PM 3.2 °F -12.2 °F -4.0 °F 72% 30.21 in 10.0 mi WNW 10.4 mph - N/A   Clear
6:35 PM 1.4 °F -15.3 °F -5.8 °F 72% 30.22 in 10.0 mi WNW 11.5 mph - N/A   Clear
6:55 PM 1.4 °F -15.3 °F -5.8 °F 72% 30.23 in 10.0 mi WNW 11.5 mph - N/A   Clear
7:15 PM -0.4 °F -16.7 °F -5.8 °F 78% 30.25 in 10.0 mi West 10.4 mph - N/A   Clear
7:35 PM -0.4 °F -15.7 °F -7.6 °F 72% 30.26 in 10.0 mi West 9.2 mph - N/A   Clear
7:55 PM -0.4 °F -14.7 °F -7.6 °F 72% 30.27 in 10.0 mi West 8.1 mph - N/A   Clear
8:15 PM -0.4 °F -15.7 °F -7.6 °F 72% 30.27 in 10.0 mi West 9.2 mph - N/A   Scattered Clouds
8:35 PM -0.4 °F -15.7 °F -7.6 °F 72% 30.28 in 10.0 mi West 9.2 mph - N/A   Clear
8:55 PM -0.4 °F -16.7 °F -7.6 °F 72% 30.28 in 10.0 mi West 10.4 mph - N/A   Clear
9:15 PM -2.2 °F -19.9 °F -7.6 °F 78% 30.28 in 10.0 mi West 11.5 mph - N/A   Clear
9:35 PM -2.2 °F -18.9 °F -9.4 °F 71% 30.29 in 10.0 mi West 10.4 mph - N/A   Clear
9:55 PM -2.2 °F -20.7 °F -9.4 °F 71% 30.29 in 10.0 mi WNW 12.7 mph - N/A   Clear
10:15 PM -2.2 °F -20.7 °F -9.4 °F 71% 30.29 in 10.0 mi WNW 12.7 mph - N/A   Clear
10:35 PM -2.2 °F -20.7 °F -9.4 °F 71% 30.30 in 10.0 mi WNW 12.7 mph - N/A   Clear
10:55 PM -2.2 °F -21.5 °F -9.4 °F 71% 30.30 in 10.0 mi WNW 13.8 mph - N/A   Clear
11:15 PM -2.2 °F -18.9 °F -9.4 °F 71% 30.31 in 10.0 mi WNW 10.4 mph - N/A   Clear
11:36 PM -2.2 °F -18.0 °F -9.4 °F 71% 30.31 in 10.0 mi West 9.2 mph - N/A   Clear
11:55 PM -4.0 °F -17.8 °F -9.4 °F 78% 30.32 in 10.0 mi West 6.9 mph - N/A   Clear